Flag for U.S.A. Weather past 2 weeks in Howell, Michigan, U.S.A.

Now
75 °F

Sunny.


Feels Like: 78 °F
Forecast: 52 / 79 °F
Wind: 3 mph from Southwest

Location: Livingston County Airport

Current Time: Jul 4, 2015 at 2:16:22 PM

Latest Report: Jul 4, 2015 at 1:35 PM


Visibility: 10 mi

Pressure: 30.00 "Hg

Humidity: 44%

Dew point: 52 °F

Location of HowellLocation

Historic Weather in Howell — Graph

°F

Howell temperature yesterday

Maximum temperature yesterday: 73 °F (at 4:55 PM)
Minimum temperature yesterday: 48 °F (at 5:55 AM)
Average temperature yesterday: 63 °F

Past Weeks' High & Low Weather Summary

 TemperatureHumidityPressure
High82 °F (Jun 21, 4:35 PM)99% (Jul 2, 3:55 AM)30.18 "Hg (Jul 2, 3:55 AM)
Low48 °F (Jul 3, 5:55 AM)33% (Jun 24, 12:35 PM)29.71 "Hg (Jun 23, 2:35 AM)
Average66 °F76%29.94 "Hg
* Reported Jun 19 1:15 PM — Jul 4 1:14 PM, Howell, Weather by CustomWeather, © 2015

Note: Actual official high and low records may vary slightly from our data, if they occured in-between our weather recording intervals... More about our weather records

Advertising

Howell weather history for previous 24 hours

 ConditionsComfort  
Time TempWeatherWind HumidityBarometerVisibility
1:14 PM
Sat, Jul 4
75 °FSunny.3 mph44%30.00 "Hg10 mi
12:55 PM76 °FSunny.3 mph42%30.00 "Hg10 mi
12:35 PM75 °FSunny.No wind44%30.01 "Hg10 mi
12:14 PM73 °FSunny.5 mph46%30.01 "Hg10 mi
11:55 AM74 °FSunny.3 mph46%30.00 "Hg10 mi
11:35 AM73 °FSunny.5 mph47%30.00 "Hg10 mi
11:14 AM72 °FSunny.No wind46%30.00 "Hg10 mi
10:55 AM71 °FSunny.5 mph53%30.00 "Hg10 mi
10:34 AM70 °FSunny.7 mph57%30.00 "Hg10 mi
10:15 AM69 °FSunny.3 mph64%30.00 "Hg10 mi
9:55 AM67 °FSunny.No wind69%30.00 "Hg10 mi
9:34 AM66 °FSunny.No wind74%29.99 "Hg10 mi
9:15 AM64 °FSunny.No wind78%29.99 "Hg10 mi
8:55 AM62 °FSunny.5 mph85%29.99 "Hg10 mi
8:34 AM60 °FSunny.No wind90%29.99 "Hg10 mi
8:15 AM58 °FSunny.No wind94%29.98 "Hg10 mi
7:55 AM56 °FSunny.No wind96%29.98 "Hg10 mi
7:34 AM54 °FSunny.No wind95%29.98 "Hg7 mi
7:15 AM52 °FSunny.No wind97%29.97 "Hg10 mi
6:54 AM51 °FClear.No wind96%29.97 "Hg7 mi
6:35 AM51 °FClear.No wind96%29.96 "Hg7 mi
6:15 AM50 °FClear.No wind96%29.96 "Hg7 mi
5:54 AM53 °FClear.No wind95%29.95 "Hg7 mi
5:35 AM52 °FClear.No wind96%29.95 "Hg7 mi
5:15 AM53 °FClear.No wind95%29.95 "Hg7 mi
4:54 AM53 °FClear.No wind95%29.94 "Hg7 mi
4:35 AM53 °FClear.No wind95%29.93 "Hg10 mi
4:15 AM52 °FClear.No wind96%29.93 "Hg10 mi
3:54 AM51 °FClear.No wind94%29.93 "Hg10 mi
3:35 AM53 °FClear.No wind93%29.94 "Hg10 mi
3:15 AM53 °FClear.No wind93%29.95 "Hg10 mi
2:54 AM54 °FClear.No wind94%29.95 "Hg10 mi
2:35 AM54 °FClear.No wind91%29.95 "Hg10 mi
2:15 AM54 °FClear.No wind91%29.95 "Hg10 mi
1:54 AM54 °FClear.No wind91%29.95 "Hg10 mi
1:35 AM56 °FClear.No wind91%29.95 "Hg10 mi
1:15 AM55 °FClear.No wind91%29.95 "Hg10 mi
12:54 AM55 °FClear.7 mph88%29.95 "Hg10 mi
12:35 AM57 °FClear.No wind86%29.95 "Hg10 mi
12:15 AM56 °FClear.No wind86%29.95 "Hg10 mi
11:35 PM
Fri, Jul 3
60 °FClear.No wind73%29.94 "Hg10 mi
11:14 PM62 °FClear.No wind71%29.95 "Hg10 mi
10:55 PM60 °FClear.No wind76%29.95 "Hg10 mi
10:35 PM60 °FClear.3 mph81%29.94 "Hg10 mi
10:14 PM62 °FSunny.No wind72%29.93 "Hg10 mi
9:55 PM63 °FSunny.5 mph72%29.93 "Hg10 mi
9:35 PM64 °FSunny.No wind66%29.93 "Hg10 mi
9:14 PM65 °FSunny.No wind64%29.93 "Hg10 mi
8:55 PM69 °FSunny.No wind56%29.93 "Hg10 mi
8:35 PM70 °FSunny.No wind50%29.93 "Hg10 mi
8:14 PM71 °FSunny.No wind52%29.92 "Hg10 mi
7:55 PM71 °FSunny.3 mph49%29.92 "Hg10 mi
7:35 PM72 °FSunny.No wind44%29.93 "Hg10 mi
7:14 PM72 °FSunny.No wind43%29.92 "Hg10 mi
6:55 PM72 °FSunny.No wind45%29.92 "Hg10 mi
6:35 PM72 °FSunny.No wind41%29.92 "Hg10 mi
6:14 PM72 °FSunny.No wind44%29.93 "Hg10 mi
5:55 PM72 °FSunny.No wind45%29.94 "Hg10 mi
5:35 PM73 °FSunny.3 mph45%29.94 "Hg10 mi
5:14 PM72 °FSunny.No wind44%29.95 "Hg10 mi
4:55 PM73 °FSunny.No wind45%29.95 "Hg10 mi
4:35 PM71 °FSunny.3 mph47%29.95 "Hg10 mi
4:14 PM72 °FSunny.3 mph45%29.96 "Hg10 mi
3:55 PM72 °FSunny.3 mph47%29.97 "Hg10 mi
3:34 PM71 °FSunny.No wind45%29.98 "Hg10 mi
3:15 PM72 °FSunny.No wind44%29.98 "Hg10 mi
2:55 PM72 °FSunny.3 mph47%29.98 "Hg10 mi
2:34 PM72 °FSunny.3 mph44%29.98 "Hg10 mi
2:15 PM71 °FSunny.No wind43%29.98 "Hg10 mi
Weather by CustomWeather, © 2015

See weather overviewHow to use our weather pages